Time,TemperatureF,DewpointF,PressureIn,WindDirection,WindDirectionDegrees,WindSpeedMPH,WindSpeedGustMPH,Humidity,HourlyPrecipIn,Conditions,Clouds,dailyrainin,SoftwareType,DateUTC
2013-05-24 00:22:00,42.0,-99.9,-100.00,North,-999,-999.0,-999.0,-999,0.00,,,0.00,,2013-05-24 06:22:00,
2013-05-24 00:32:00,42.0,-99.9,-100.00,North,-999,-999.0,-999.0,-999,0.00,,,0.00,,2013-05-24 06:32:00,
2013-05-24 00:42:00,42.0,-99.9,-100.00,North,-999,-999.0,-999.0,-999,0.00,,,0.00,,2013-05-24 06:42:00,
2013-05-24 01:22:00,36.0,-99.9,-100.00,North,-999,-999.0,-999.0,-999,0.01,,,-99.99,,2013-05-24 07:22:00,
2013-05-24 01:32:00,36.0,-99.9,-100.00,North,-999,-999.0,-999.0,-999,0.01,,,-99.99,,2013-05-24 07:32:00,
2013-05-24 01:42:00,36.0,-99.9,-100.00,North,-999,-999.0,-999.0,-999,0.01,,,-99.99,,2013-05-24 07:42:00,
2013-05-24 02:22:00,35.0,-99.9,-100.00,North,-999,-999.0,-999.0,-999,0.00,,,0.01,,2013-05-24 08:22:00,
2013-05-24 02:33:00,35.0,-99.9,-100.00,North,-999,-999.0,-999.0,-999,0.00,,,0.01,,2013-05-24 08:33:00,
2013-05-24 02:42:00,35.0,-99.9,-100.00,North,-999,-999.0,-999.0,-999,0.00,,,0.01,,2013-05-24 08:42:00,
2013-05-24 03:22:00,34.0,-99.9,-100.00,North,-999,-999.0,-999.0,-999,0.00,,,0.00,,2013-05-24 09:22:00,
2013-05-24 03:33:00,34.0,-99.9,-100.00,North,-999,-999.0,-999.0,-999,0.00,,,0.00,,2013-05-24 09:33:00,
2013-05-24 03:43:00,34.0,-99.9,-100.00,North,-999,-999.0,-999.0,-999,0.00,,,0.00,,2013-05-24 09:43:00,
2013-05-24 04:23:00,33.0,-99.9,-100.00,North,-999,-999.0,-999.0,-999,0.00,,,0.01,,2013-05-24 10:23:00,
2013-05-24 04:33:00,33.0,-99.9,-100.00,North,-999,-999.0,-999.0,-999,0.00,,,0.01,,2013-05-24 10:33:00,
2013-05-24 04:42:00,33.0,-99.9,-100.00,North,-999,-999.0,-999.0,-999,0.00,,,0.01,,2013-05-24 10:42:00,
2013-05-24 05:23:00,34.0,-99.9,-100.00,North,-999,-999.0,-999.0,-999,0.02,,,0.03,,2013-05-24 11:23:00,
2013-05-24 05:32:00,34.0,-99.9,-100.00,North,-999,-999.0,-999.0,-999,0.02,,,0.03,,2013-05-24 11:32:00,
2013-05-24 05:42:00,34.0,-99.9,-100.00,North,-999,-999.0,-999.0,-999,0.02,,,0.03,,2013-05-24 11:42:00,
2013-05-24 06:22:00,29.0,-99.9,-100.00,North,-999,-999.0,-999.0,-999,0.00,,,0.03,,2013-05-24 12:22:00,
2013-05-24 06:33:00,29.0,-99.9,-100.00,North,-999,-999.0,-999.0,-999,0.00,,,0.03,,2013-05-24 12:33:00,
2013-05-24 06:42:00,29.0,-99.9,-100.00,North,-999,-999.0,-999.0,-999,0.00,,,0.03,,2013-05-24 12:42:00,
2013-05-24 07:22:00,32.0,-99.9,-100.00,North,-999,-999.0,-999.0,-999,0.00,,,0.03,,2013-05-24 13:22:00,
2013-05-24 07:32:00,32.0,-99.9,-100.00,North,-999,-999.0,-999.0,-999,0.00,,,0.03,,2013-05-24 13:32:00,
2013-05-24 07:42:00,32.0,-99.9,-100.00,North,-999,-999.0,-999.0,-999,0.00,,,0.03,,2013-05-24 13:42:00,
2013-05-24 08:22:00,38.0,-99.9,-100.00,North,-999,-999.0,-999.0,-999,0.00,,,0.03,,2013-05-24 14:22:00,
2013-05-24 08:42:00,38.0,-99.9,-100.00,North,-999,-999.0,-999.0,-999,0.00,,,0.03,,2013-05-24 14:42:00,
2013-05-24 09:22:00,43.0,-99.9,-100.00,North,-999,-999.0,-999.0,-999,0.00,,,-99.99,,2013-05-24 15:22:00,
2013-05-24 09:33:00,43.0,-99.9,-100.00,North,-999,-999.0,-999.0,-999,0.00,,,-99.99,,2013-05-24 15:33:00,
2013-05-24 09:43:00,43.0,-99.9,-100.00,North,-999,-999.0,-999.0,-999,0.00,,,-99.99,,2013-05-24 15:43:00,
2013-05-24 10:22:00,45.0,-99.9,-100.00,North,-999,-999.0,-999.0,-999,0.00,,,0.03,,2013-05-24 16:22:00,
2013-05-24 10:33:00,45.0,-99.9,-100.00,North,-999,-999.0,-999.0,-999,0.00,,,0.03,,2013-05-24 16:33:00,
2013-05-24 10:42:00,45.0,-99.9,-100.00,North,-999,-999.0,-999.0,-999,0.00,,,0.03,,2013-05-24 16:42:00,
2013-05-24 11:22:00,47.0,-99.9,-100.00,North,-999,-999.0,-999.0,-999,0.00,,,0.03,,2013-05-24 17:22:00,
2013-05-24 11:32:00,47.0,-99.9,-100.00,North,-999,-999.0,-999.0,-999,0.00,,,0.03,,2013-05-24 17:32:00,
2013-05-24 11:42:00,47.0,-99.9,-100.00,North,-999,-999.0,-999.0,-999,0.00,,,0.03,,2013-05-24 17:42:00,
2013-05-24 12:22:00,50.0,-99.9,-100.00,North,-999,-999.0,-999.0,-999,0.00,,,-99.99,,2013-05-24 18:22:00,
2013-05-24 12:32:00,50.0,-99.9,-100.00,North,-999,-999.0,-999.0,-999,0.00,,,-99.99,,2013-05-24 18:32:00,
2013-05-24 12:42:00,50.0,-99.9,-100.00,North,-999,-999.0,-999.0,-999,0.00,,,-99.99,,2013-05-24 18:42:00,
2013-05-24 13:22:00,52.0,-99.9,-100.00,North,-999,-999.0,-999.0,-999,0.00,,,0.03,,2013-05-24 19:22:00,
2013-05-24 13:32:00,52.0,-99.9,-100.00,North,-999,-999.0,-999.0,-999,0.00,,,0.03,,2013-05-24 19:32:00,
2013-05-24 13:42:00,52.0,-99.9,-100.00,North,-999,-999.0,-999.0,-999,0.00,,,0.03,,2013-05-24 19:42:00,
2013-05-24 14:22:00,53.0,-99.9,-100.00,North,-999,-999.0,-999.0,-999,0.00,,,0.03,,2013-05-24 20:22:00,
2013-05-24 14:32:00,53.0,-99.9,-100.00,North,-999,-999.0,-999.0,-999,0.00,,,0.03,,2013-05-24 20:32:00,
2013-05-24 14:42:00,53.0,-99.9,-100.00,North,-999,-999.0,-999.0,-999,0.00,,,0.03,,2013-05-24 20:42:00,
2013-05-24 15:22:00,57.0,-99.9,-100.00,North,-999,-999.0,-999.0,-999,0.00,,,0.03,,2013-05-24 21:22:00,
2013-05-24 15:33:00,57.0,-99.9,-100.00,North,-999,-999.0,-999.0,-999,0.00,,,0.03,,2013-05-24 21:33:00,
2013-05-24 15:43:00,57.0,-99.9,-100.00,North,-999,-999.0,-999.0,-999,0.00,,,0.03,,2013-05-24 21:43:00,
2013-05-24 16:23:00,55.0,-99.9,-100.00,North,-999,-999.0,-999.0,-999,0.00,,,-99.99,,2013-05-24 22:23:00,
2013-05-24 16:33:00,55.0,-99.9,-100.00,North,-999,-999.0,-999.0,-999,0.00,,,-99.99,,2013-05-24 22:33:00,
2013-05-24 16:42:00,55.0,-99.9,-100.00,North,-999,-999.0,-999.0,-999,0.00,,,-99.99,,2013-05-24 22:42:00,
2013-05-24 17:22:00,58.0,-99.9,-100.00,North,-999,-999.0,-999.0,-999,0.00,,,0.03,,2013-05-24 23:22:00,
2013-05-24 17:32:00,58.0,-99.9,-100.00,North,-999,-999.0,-999.0,-999,0.00,,,0.03,,2013-05-24 23:32:00,
2013-05-24 17:42:00,58.0,-99.9,-100.00,North,-999,-999.0,-999.0,-999,0.00,,,0.03,,2013-05-24 23:42:00,
2013-05-24 18:22:00,57.0,-99.9,-100.00,North,-999,-999.0,-999.0,-999,0.00,,,0.03,,2013-05-25 00:22:00,
2013-05-24 18:32:00,57.0,-99.9,-100.00,North,-999,-999.0,-999.0,-999,0.00,,,0.03,,2013-05-25 00:32:00,
2013-05-24 18:42:00,57.0,-99.9,-100.00,North,-999,-999.0,-999.0,-999,0.00,,,0.03,,2013-05-25 00:42:00,
2013-05-24 19:22:00,57.0,-99.9,-100.00,North,-999,-999.0,-999.0,-999,0.00,,,0.03,,2013-05-25 01:22:00,
2013-05-24 19:33:00,57.0,-99.9,-100.00,North,-999,-999.0,-999.0,-999,0.00,,,0.03,,2013-05-25 01:33:00,
2013-05-24 19:42:00,57.0,-99.9,-100.00,North,-999,-999.0,-999.0,-999,0.00,,,0.03,,2013-05-25 01:42:00,
2013-05-24 20:22:00,54.0,-99.9,-100.00,North,-999,-999.0,-999.0,-999,0.00,,,0.03,,2013-05-25 02:22:00,
2013-05-24 20:32:00,54.0,-99.9,-100.00,North,-999,-999.0,-999.0,-999,0.00,,,0.03,,2013-05-25 02:32:00,
2013-05-24 20:42:00,54.0,-99.9,-100.00,North,-999,-999.0,-999.0,-999,0.00,,,0.03,,2013-05-25 02:42:00,
2013-05-24 21:22:00,47.0,-99.9,-100.00,North,-999,-999.0,-999.0,-999,0.00,,,0.03,,2013-05-25 03:22:00,
2013-05-24 21:33:00,47.0,-99.9,-100.00,North,-999,-999.0,-999.0,-999,0.00,,,0.03,,2013-05-25 03:33:00,
2013-05-24 21:43:00,47.0,-99.9,-100.00,North,-999,-999.0,-999.0,-999,0.00,,,0.03,,2013-05-25 03:43:00,
2013-05-24 22:23:00,39.0,-99.9,-100.00,North,-999,-999.0,-999.0,-999,0.00,,,0.03,,2013-05-25 04:23:00,
2013-05-24 22:33:00,39.0,-99.9,-100.00,North,-999,-999.0,-999.0,-999,0.00,,,0.03,,2013-05-25 04:33:00,
2013-05-24 22:43:00,39.0,-99.9,-100.00,North,-999,-999.0,-999.0,-999,0.00,,,0.03,,2013-05-25 04:43:00,
2013-05-24 23:22:00,35.0,-99.9,-100.00,North,-999,-999.0,-999.0,-999,0.00,,,0.03,,2013-05-25 05:22:00,
2013-05-24 23:32:00,35.0,-99.9,-100.00,North,-999,-999.0,-999.0,-999,0.00,,,0.03,,2013-05-25 05:32:00,
2013-05-24 23:43:00,35.0,-99.9,-100.00,North,-999,-999.0,-999.0,-999,0.00,,,0.03,,2013-05-25 05:43:00,